DateTimeUTC,F1_A11,F1_S11,BsB_S11,BsG_S11,BsR_S11,BbsB_S11,BbsG_S11,BbsR_S11,BaB_A11,BaG_A11,BaR_A11,Tu_S11,T_S11,Uu_S11,U_S11,P_S11,T1_A11
2021-10-22T09:00:00Z,00000200,21000000,,,,,,,-000.00,0000.05,-000.19,16.9,23.8,,00.0,0650.3,30.9
2021-10-22T09:01:00Z,00000200,21000000,,,,,,,-000.12,-000.06,0000.20,16.8,23.8,,00.0,0650.3,30.9
2021-10-22T09:02:00Z,00000200,21000000,,,,,,,-000.16,-000.32,0000.07,16.8,23.8,,00.0,0650.3,30.9
2021-10-22T09:03:00Z,00000200,61000000,,,,,,,0000.72,0000.39,0000.16,16.8,23.8,,00.0,0650.3,30.9
2021-10-22T09:04:00Z,00000200,41000000,0000.59,0001.08,0000.22,0000.22,0000.39,0000.14,0000.02,0000.31,-000.02,17.0,23.7,,00.0,0651.1,30.9
2021-10-22T09:05:00Z,00000200,01000000,0001.38,0001.11,0000.69,-000.18,0000.48,-000.21,0000.46,0000.44,0000.69,17.1,23.6,,00.0,0651.1,30.9
2021-10-22T09:06:00Z,00000200,01000000,0001.15,0001.26,0000.50,0000.33,0000.30,0000.07,0000.45,0000.39,0000.19,17.1,23.6,,00.0,0651.1,30.9
2021-10-22T09:07:00Z,00000200,01000000,0001.47,0000.69,0000.55,-000.01,0000.19,0000.39,0000.86,0000.64,0000.86,17.2,23.6,,00.0,0651.1,30.9
2021-10-22T09:08:00Z,00000200,01000000,0001.86,0000.76,0000.36,-000.18,0000.01,0000.14,0000.02,0000.23,-000.37,17.2,23.7,,00.0,0651.1,30.9
2021-10-22T09:09:00Z,00000200,01000000,0001.55,0000.85,0000.28,0000.26,0000.14,0000.14,0000.56,0000.38,0000.33,17.2,23.7,,00.0,0651.1,30.9
2021-10-22T09:10:00Z,00000200,01000000,0001.49,0001.02,0000.68,0000.01,0000.24,0000.17,0000.09,0000.40,0000.19,17.3,23.7,,00.0,0651.2,30.9
2021-10-22T09:11:00Z,00000200,01000000,0001.07,0001.22,0000.73,-000.00,-000.11,-000.28,0000.22,0000.09,0000.03,17.3,23.7,,00.0,0651.2,30.9
2021-10-22T09:12:00Z,00000200,01000000,0001.57,0001.12,0000.34,-000.33,0000.21,0000.13,-000.17,-000.15,0000.12,17.2,23.7,,00.0,0651.1,30.9
2021-10-22T09:13:00Z,00000200,01000000,0001.21,0001.16,0000.39,0000.18,0000.38,-000.06,0000.62,0000.37,-000.02,17.1,23.7,,00.0,0651.1,30.9
2021-10-22T09:14:00Z,00000200,01000000,0001.71,0000.84,0000.34,-000.59,0000.12,-000.24,-000.11,-000.01,0000.55,17.0,23.6,,00.0,0651.1,30.9
2021-10-22T09:15:00Z,00000200,01000000,0001.73,0001.10,0000.51,-000.05,0000.11,-000.12,0000.54,0000.39,-000.33,16.9,23.6,,00.0,0651.1,30.9
2021-10-22T09:16:00Z,00000200,01000000,0001.24,0001.25,0000.56,0000.24,-000.13,0000.42,0000.70,0000.37,0000.74,16.8,23.5,,00.0,0651.1,30.9
2021-10-22T09:17:00Z,00000200,01000000,0001.45,0001.10,0000.29,-000.05,-000.06,0000.40,0000.41,0000.45,0000.14,16.8,23.5,,00.0,0651.0,30.9
2021-10-22T09:18:00Z,00000200,01000000,0001.47,0000.97,0000.28,0000.08,0000.41,0000.17,0001.50,0001.10,0001.09,16.8,23.5,,00.0,0651.0,30.9
2021-10-22T09:19:00Z,00000200,01000000,0000.75,0000.85,0000.13,-000.20,0000.35,0000.31,0000.85,0000.88,0000.69,16.8,23.4,,00.0,0651.0,30.9
2021-10-22T09:20:00Z,00000200,01000000,0001.19,0000.72,0000.41,0000.02,0000.31,0000.20,0000.88,0001.16,0000.63,16.8,23.4,,00.0,0650.9,30.9
2021-10-22T09:21:00Z,00000200,01000000,0001.28,0001.13,0000.34,-000.02,0000.12,-000.01,0000.63,0000.48,0000.50,16.9,23.5,,00.0,0650.9,30.9
2021-10-22T09:22:00Z,00000200,01000000,0001.68,0000.43,0000.35,-000.27,0000.24,0000.25,0000.33,0000.62,0000.11,16.9,23.5,,00.0,0650.9,30.9
2021-10-22T09:23:00Z,00000200,01000000,0000.86,0000.82,0000.64,0000.26,0000.21,0000.22,0000.43,0000.24,0000.85,16.9,23.5,,00.0,0650.9,30.9
2021-10-22T09:24:00Z,00000200,01000000,0001.12,0001.36,0000.49,0000.27,0000.25,0000.22,0000.43,0000.25,-000.36,17.0,23.5,,00.0,0650.9,30.9
2021-10-22T09:25:00Z,00000200,01000000,0000.73,0000.71,0000.44,0000.30,0000.03,0000.21,0000.16,0000.66,0000.18,17.0,23.5,,00.0,0650.9,30.9
2021-10-22T09:26:00Z,00000200,01000000,0001.11,0001.15,0000.01,0000.53,0000.20,0000.21,0000.35,0000.12,0000.28,17.0,23.5,,00.0,0650.9,30.9
2021-10-22T09:27:00Z,00000200,01000000,0001.20,0000.43,0000.71,0000.47,0000.14,0000.37,0000.35,-000.28,0000.04,17.1,23.5,,00.0,0650.9,30.9
2021-10-22T09:28:00Z,00000200,01000000,0001.52,0000.77,0000.39,-000.40,0000.06,0000.13,0000.37,0000.43,0000.46,17.1,23.5,,00.0,0650.9,30.9
2021-10-22T09:29:00Z,00000200,01000000,0001.14,0000.81,0000.44,0000.22,0000.07,-000.03,-000.08,0000.23,-000.31,17.1,23.5,,00.0,0650.9,30.9
2021-10-22T09:30:00Z,00000200,01000000,0000.69,0000.91,0000.68,0000.19,0000.28,-000.10,0000.01,-000.23,0000.50,17.2,23.6,,00.0,0650.9,30.9
2021-10-22T09:31:00Z,00000200,01000000,0001.55,0000.66,0000.29,-000.10,0000.35,-000.10,0000.36,0000.41,-000.08,17.1,23.6,,00.0,0650.9,30.9
2021-10-22T09:32:00Z,00000200,01000000,0000.55,0001.35,0000.35,0000.42,0000.25,-000.07,0000.18,0000.24,-000.06,17.1,23.6,,00.0,0650.9,30.9
2021-10-22T09:33:00Z,00000200,01000000,0000.75,0000.85,0000.31,0000.39,0000.00,0000.08,0000.17,-000.12,0000.06,17.1,23.5,,00.0,0650.9,30.9
2021-10-22T09:34:00Z,00000200,01000000,0001.38,0001.48,0000.42,0000.09,0000.34,0000.00,-000.03,0000.13,0000.31,17.1,23.5,,00.0,0650.9,30.9
2021-10-22T09:35:00Z,00000200,01000000,0001.25,0001.08,0000.34,-000.28,0000.10,0000.33,0000.77,0000.48,0000.33,17.1,23.5,,00.0,0650.9,30.9
2021-10-22T09:36:00Z,00000200,01000000,0000.83,0001.22,0000.72,0000.77,-000.07,0000.31,0000.35,0000.65,0000.53,17.1,23.5,,00.0,0650.9,30.9
2021-10-22T09:37:00Z,00000200,01000000,0001.22,0001.22,0000.44,-000.22,-000.14,0000.06,-000.41,-000.24,0000.05,17.1,23.5,,00.0,0650.9,30.9
2021-10-22T09:38:00Z,00000200,01000000,0000.82,0001.28,0000.39,-000.51,-000.08,0000.03,0000.77,0000.59,0000.00,17.1,23.6,,00.0,0650.9,30.9
2021-10-22T09:39:00Z,00000200,01000000,0000.51,0000.98,0000.39,0000.15,0000.01,-000.51,0000.68,0000.55,0000.40,17.2,23.6,,00.0,0650.9,30.9
2021-10-22T09:40:00Z,00000200,01000000,0001.70,0001.29,0000.67,0000.55,0000.11,-000.26,0000.42,0000.29,0000.23,17.2,23.6,,00.0,0650.9,30.9
2021-10-22T09:41:00Z,00000200,01000000,0000.93,0000.95,0000.49,0000.09,-000.07,0000.05,0000.54,0000.48,0000.73,17.1,23.6,,00.0,0650.8,30.9
2021-10-22T09:42:00Z,00000200,01000000,0000.93,0001.00,0000.27,0000.21,0000.07,0000.04,0000.22,0000.35,0000.02,17.0,23.5,,00.0,0650.8,30.9
2021-10-22T09:43:00Z,00000200,01000000,0001.06,0001.15,0000.15,0000.17,0000.21,-000.34,0001.01,0001.13,0000.20,17.0,23.5,,00.0,0650.8,30.9
2021-10-22T09:44:00Z,00000200,01000000,0001.30,0000.96,0000.15,0000.33,0000.14,0000.06,-000.00,-000.22,0000.27,16.9,23.4,,00.0,0650.8,30.9
2021-10-22T09:45:00Z,00000200,01000000,0000.56,0000.80,0000.38,0000.49,-000.15,-000.03,0000.50,0000.03,0000.40,16.7,23.4,,00.0,0650.8,30.8
2021-10-22T09:46:00Z,00000200,01000000,0000.89,0001.17,0000.21,0000.47,0000.37,0000.24,0000.36,0000.35,-000.10,16.6,23.3,,00.0,0650.7,30.8
2021-10-22T09:47:00Z,00000200,01000000,0000.05,0000.74,0000.23,0000.33,0000.21,0000.30,0000.20,0000.41,0000.36,16.6,23.3,,00.0,0650.7,30.8
2021-10-22T09:48:00Z,00000200,01000000,0000.42,0000.51,0000.15,-000.08,0000.28,0000.26,0000.52,0000.34,0000.60,16.5,23.3,,00.0,0650.7,30.8
2021-10-22T09:49:00Z,00000200,01000000,0000.90,0000.56,0000.35,0000.31,0000.02,0000.02,0000.48,0000.93,0000.01,16.6,23.2,,00.0,0650.7,30.8
2021-10-22T09:50:00Z,00000200,01000000,0000.23,0000.55,0000.08,0000.29,0000.34,-000.09,0000.45,0000.10,0000.66,16.6,23.2,,00.0,0650.7,30.8
2021-10-22T09:51:00Z,00000200,01000000,0000.50,0000.56,0000.09,0000.34,0000.17,0000.06,0000.36,0000.07,0000.42,16.6,23.2,,00.0,0650.7,30.9
2021-10-22T09:52:00Z,00000200,01000000,0000.59,0000.67,0000.11,-000.03,0000.13,-000.03,-000.07,-000.12,-000.58,16.6,23.2,,00.0,0650.7,30.9
2021-10-22T09:53:00Z,00000200,01000000,0000.17,0000.89,-000.02,0000.34,0000.25,-000.06,-000.17,-000.18,-000.07,16.7,23.3,,00.0,0650.7,30.9
2021-10-22T09:54:00Z,00000200,01000000,0000.57,0001.10,0000.24,0000.05,0000.09,-000.37,-000.22,0000.38,-000.07,16.7,23.2,,00.0,0650.8,30.9
2021-10-22T09:55:00Z,00000200,01000000,0000.75,0000.79,0000.44,0000.05,0000.23,0000.17,0000.45,-000.31,0000.24,16.8,23.3,,00.0,0650.8,30.9
2021-10-22T09:56:00Z,00000200,01000000,0000.90,0001.01,0000.44,0000.11,0000.31,-000.05,-000.35,0000.41,0000.21,16.8,23.3,,00.0,0650.8,30.9
2021-10-22T09:57:00Z,00000200,41000000,,,,,,,0000.54,0000.26,-000.11,16.9,23.3,,00.0,0650.9,30.9
2021-10-22T09:58:00Z,00000200,61000000,,,,,,,-000.71,-000.73,-000.07,16.6,23.4,,00.0,0649.9,30.9
2021-10-22T09:59:00Z,00000200,21000000,,,,,,,-000.50,-000.16,-000.42,16.6,23.5,,00.0,0649.8,30.9
